Regional Weather Roundup
Issued by NWS

Home | Current Version | Previous Version | Graphics & Text | Print | Product List | Glossary On
Versions: 1 2 3 4 5 6 7 8 9 10 11 12 13 14 15 16 17 18 19 20 21 22 23 24 25 26 27 28 29 30 31 32 33 34 35 36 37 38 39 40 41 42 43 44 45 46 47 48 49 50
000
ASUS43 KMKX 312211
RWRWI

WISCONSIN REGIONAL WEATHER ROUNDUP
NATIONAL WEATHER SERVICE MILWAUKEE/SULLIVAN WI
500 PM CDT THU JUL 31 2014

NOTE: "FAIR" INDICATES FEW OR NO CLOUDS BELOW 12,000 FEET WITH NO
SIGNIFICANT WEATHER AND/OR OBSTRUCTIONS TO VISIBILITY.

WIZ001-002-006>008-014>016-023>028-312300-
NORTHWEST WISCONSIN

CITY           SKY/WX    TMP DP  RH WIND       PRES   REMARKS
SUPERIOR ARPT  SUNNY     80  58  46 NW7       29.95S HX  81
ASHLAND        SUNNY     78  56  46 VRB6      29.97S
HAYWARD        SUNNY     79  56  45 CALM      29.98S HX  80
SIREN          MOSUNNY   80  60  51 NW8       29.98F HX  81
RICE LAKE      PTSUNNY   76  60  58 W6        30.01S
LADYSMITH      MOSUNNY   77  61  57 W7        30.00S
EAU CLAIRE     SUNNY     81  58  45 SW12      29.98F HX  81
MENOMONIE      CLEAR     81  55  40 SW13      30.00S HX  80
NEW RICHMOND   SUNNY     80  55  41 W13       30.00S HX  80
OSCEOLA        MOSUNNY   81  59  47 W9G17     30.01S HX  81
$$

WIZ003>005-009-010-017-018-312300-
NORTH CENTRAL WISCONSIN

CITY           SKY/WX    TMP DP  RH WIND       PRES   REMARKS
WOODRUFF       SUNNY     80  49  34 NW6       29.99S
RHINELANDER    SUNNY     76  48  37 NW7       30.00R
EAGLE RIVER    MOSUNNY   74  45  35 NW9       29.99R
LAND O LAKES   SUNNY     75  45  34 NW9       30.00S
PHILLIPS       MOSUNNY   76  54  46 NW3       29.99R
TOMAHAWK       MOSUNNY   75  53  45 NW9       29.99S
MEDFORD        MOSUNNY   69  59  69 W7        30.00S
MERRILL        MOSUNNY   77  63  63 W10       29.98S
$$

WIZ029-030-035-036-043>047-312300-
CENTRAL WISCONSIN

CITY           SKY/WX    TMP DP  RH WIND       PRES   REMARKS
WAUSAU         LGT RAIN  72  63  73 NW6       29.97R
MOSINEE        MOSUNNY   75  59  57 W14G21    29.99S
MARSHFIELD     MOSUNNY   79  60  52 W10       30.00R HX  80
STEVENS POINT  MOSUNNY   75  58  55 W10G17    29.98F
WAUPACA        MOSUNNY   82  55  40 NW9       29.97R HX  81
WAUTOMA        MOSUNNY   84  57  39 W14       29.98R HX  83
WISC RAPIDS    PTSUNNY   79  60  52 NW7       30.00R HX  80
CAMP DOUGLAS   MOSUNNY   79  63  57 W12       30.00S HX  80
$$

WIZ011>013-019>022-031-037>040-048>050-312300-
NORTHEAST WISCONSIN

CITY           SKY/WX    TMP DP  RH WIND       PRES   REMARKS
ANTIGO         MOSUNNY   76  54  46 NW8       29.98S
STURGEON BAY   SUNNY     79  48  34 W8        29.96S
GREEN BAY      MOSUNNY   79  61  53 W8        29.96R HX  80
MANITOWOC      CLOUDY    69  63  81 S7        29.98S
APPLETON       PTSUNNY   68  57  68 SW7       29.98R
CLINTONVILLE   MOSUNNY   75  55  50 W7        29.96R
OSHKOSH        MOSUNNY   79  64  60 VRB3      29.97R HX  81
$$

WIZ032>034-041-042-053>061-312300-
SOUTHWEST WISCONSIN

CITY           SKY/WX    TMP DP  RH WIND       PRES   REMARKS
LA CROSSE      SUNNY     83  56  39 W9        30.00S HX  82
SPARTA         SUNNY     80  56  43 W7        30.02S HX  80
VIROQUA        FAIR      77  56  47 W7        30.04S
BOSCOBEL       MOSUNNY   82  57  42 W7        30.02S HX  82
PRAIRIE DU CHI SUNNY     82  50  33 W8        30.01F HX  81
PLATTEVILLE    FAIR      79  58  47 W12       30.05S HX  80
$$

WIZ056-057-062-063-064-067-068-312300-
SOUTH CENTRAL WISCONSIN

CITY           SKY/WX    TMP DP  RH WIND       PRES   REMARKS
BARABOO/DELLS  MOSUNNY   80  51  36 NW12      30.00S HX  80
LONE ROCK      PTSUNNY   84  59  42 W9        30.01S HX  84
WATERTOWN      MOSUNNY   78  58  50 W8        30.00S
MADISON        PTSUNNY   81  58  45 VRB7      30.01S HX  81
MIDDLETON      FAIR      82  55  39 W9        30.02S HX  81
MONROE         SUNNY     79  55  44 W12       30.03S
JANESVILLE     MOSUNNY   82  52  34 W13       30.01S HX  81
$$

WIZ051-052-058>065-066-070>072-312300-
SOUTHEAST WISCONSIN

CITY           SKY/WX    TMP DP  RH WIND       PRES   REMARKS
MILWAUKEE      PTSUNNY   82  55  39 SW13      29.99S HX  81
WAUKESHA       MOSUNNY   79  54  41 W9        30.00S
MILWAUKEE/TIMM SUNNY     81  50  34 W12G18    29.99S HX  80
RACINE         MOSUNNY   81  58  45 W8        30.01S HX  81
BURLINGTON     MOSUNNY   78  56  45 W10       30.01S
KENOSHA        MOSUNNY   81  59  47 W12       30.00F HX  81
FOND DU LAC    MOSUNNY   79  60  52 CALM      29.98S HX  80
SHEBOYGAN      PTSUNNY   72  60  66 SW6       29.98S
WEST BEND      MOSUNNY   79  54  41 W10G17    29.99R
JUNEAU         SUNNY     79  50  36 SW13      30.01R
$$

LSZ147-162-312300-
LAKE SUPERIOR

STATION/POSITION TIME  TEMP    WIND        PRES    WAVE
                       AIR SEA DIR/SP/G            HT/PER
                 (UTC) (F)     (DEG/KT/KT) (MB)    (FT/S)
W MID LAKE BUOY  2150   53 45  190/  6/  8 1014.2F   0
PORT WING        2140   78     260/  7/ 10 1014.2S
SAXON HARBOR     2100             CALM     1014.9S
$$

LMZ867-665-643>646-312300-
LAKE MICHIGAN

STATION/POSITION TIME  TEMP    WIND        PRES    WAVE
                       AIR SEA DIR/SP/G            HT/PER
                 (UTC) (F)     (DEG/KT/KT) (MB)    (FT/S)
N MID LAKE BUOY  2150   59 55  210/ 14/ 14 1013.1F   2/ 4
NORTHPORT PIER   2100   71     160/  8/ 12 1013.9S
SISTER BAY       2110   83     270/ 10/ 11   N/A
ALGOMA LAKESHORE 2021          210/ 10/ 11   N/A
KEWAUNEE LAKESHO 2100   59     170/ 13/ 15 1014.2F
SHEBOYGAN LAKESH 2200   69     180/  7/  8 1015.2R
PORT WASHINGTON  2140   68     100/  2/  5 1015.6F
ATWATER BUOY     2200   77     250/  8     1016.2R
MILWAUKEE LAKESH 2100   80     290/ 11/ 16   N/A
S MID LAKE BUOY  2150   66 64  160/  6/  8 1016.1F   0
KENOSHA   LAKESH 2200   80     290/  9/ 13 1015.2S
$$

TC  - TEMPERATURE IN CELSIUS
VSB - VISIBILITY IN STATUTE MILES
WCI - WIND CHILL INDEX
HX  - HEAT INDEX



USA.gov is the U.S. government's official web portal to all federal, state and local government web resources and services.